Weather History for Camden, AR

Change the Weather History Date:

Tuesday, March 11, 2014

  Actual Average Record
Temperature  
Mean Temperature 62 °F -  
Max Temperature 77 °F 68 °F 89 °F (1967)
Min Temperature 46 °F 41 °F 20 °F (1932)
Degree Days  
Heating Degree Days 4    
Growing Degree Days 12 (Base 50)    
Moisture  
Dew Point 50 °F    
Average Humidity 70    
Maximum Humidity 93    
Minimum Humidity 44    
Precipitation  
Precipitation 0.00 in - - ()
Sea Level Pressure  
Sea Level Pressure 29.72 in    
Wind  
Wind Speed - (North)    
Max Wind Speed -    
Max Gust Speed -    
Visibility 9 miles    
Events      
Averages and records for this station are not official NWS values.
T = Trace of Precipitation, MM = Missing Value Source: NWS Daily Summary

Daily Weather History Graph

Daily Weather History Graph

Search for Another Location

Airport:

Trip Planner

Search our weather history database for the weather conditions in past years. The results will help you decide how hot, cold, wet, or windy it might be!

Date:

Astronomy

Mar. 11, 2014 Rise Set
Actual Time 7:26 AM CDT 7:15 PM CDT
Civil Twilight 7:01 AM CDT 7:40 PM CDT
Nautical Twilight 6:33 AM CDT 8:09 PM CDT
Astronomical Twilight 6:04 AM CDT 8:38 PM CDT
Moon 3:02 PM CDT (3/11) 4:10 AM CDT (3/11)
Length of Visible Light 12h 38m
Length of Day
11h 49m
Waxing Gibbous, 78% of the Moon is Illuminated
Mar 11
Waxing Gibbous
Mar 16
Full
Mar 23
Last Quarter
Mar 30
New
Apr 7
First Quarter

Hourly Weather History & Observations

Time (CDT) Temp. Dew Point Humidity Pressure Visibility Wind Dir Wind Speed Gust Speed Precip Events Conditions
12:15 AM 50.0 °F 44.6 °F 82% 29.90 in 10.0 mi North - - N/A   Clear
12:35 AM 48.2 °F 44.6 °F 87% 29.90 in 10.0 mi North - - N/A   Clear
12:55 AM 48.2 °F 44.6 °F 87% 29.89 in 10.0 mi North - - N/A   Clear
1:15 AM 50.0 °F 44.6 °F 82% 29.88 in 7.0 mi North - - N/A   Clear
1:35 AM 48.2 °F 44.6 °F 87% 29.87 in 10.0 mi North - - N/A   Clear
1:55 AM 48.2 °F 44.6 °F 87% 29.87 in 10.0 mi North - - N/A   Clear
2:15 AM 48.2 °F 42.8 °F 82% 29.87 in 10.0 mi North - - N/A   Clear
2:35 AM 46.4 °F 42.8 °F 87% 29.86 in 10.0 mi North - - N/A   Clear
2:55 AM 46.4 °F 44.6 °F 93% 29.86 in 9.0 mi North - - N/A   Clear
3:15 AM 48.2 °F 44.6 °F 87% 29.85 in 10.0 mi North - - N/A   Clear
3:35 AM 48.2 °F 44.6 °F 87% 29.84 in 8.0 mi North - - N/A   Clear
3:55 AM 48.2 °F 44.6 °F 87% 29.83 in 7.0 mi North - - N/A   Clear
4:15 AM 48.2 °F 44.6 °F 87% 29.83 in 7.0 mi North - - N/A   Clear
4:35 AM 48.2 °F 44.6 °F 87% 29.82 in 7.0 mi North - - N/A   Clear
4:55 AM 46.4 °F 44.6 °F 93% 29.82 in 8.0 mi North - - N/A   Clear
5:15 AM 46.4 °F 44.6 °F 93% 29.81 in 9.0 mi North - - N/A   Clear
5:35 AM 46.4 °F 44.6 °F 93% 29.82 in 8.0 mi North - - N/A   Clear
5:55 AM 46.4 °F 42.8 °F 87% 29.81 in 7.0 mi North - - N/A   Clear
6:15 AM 46.4 °F 42.8 °F 87% 29.81 in 9.0 mi North - - N/A   Clear
6:35 AM 46.4 °F 42.8 °F 87% 29.81 in 9.0 mi North - - N/A   Clear
6:55 AM 46.4 °F 44.6 °F 93% 29.80 in 5.0 mi North - - N/A   Clear
7:15 AM 46.4 °F 42.8 °F 87% 29.79 in 7.0 mi North - - N/A   Clear
7:35 AM 46.4 °F 42.8 °F 87% 29.78 in 2.5 mi North - - N/A   Clear
7:55 AM 46.4 °F 44.6 °F 93% 29.78 in 3.0 mi North - - N/A   Clear
8:20 AM 46.4 °F 44.6 °F 93% 29.78 in 5.0 mi North - - N/A   Clear
8:35 AM 48.2 °F 46.4 °F 93% 29.78 in 7.0 mi North - - N/A   Clear
8:55 AM 53.6 °F 48.2 °F 82% 29.80 in 7.0 mi North - - N/A   Clear
9:15 AM 57.2 °F 53.6 °F 88% 29.80 in 7.0 mi North - - N/A   Clear
9:35 AM 60.8 °F 53.6 °F 77% 29.80 in 9.0 mi North - - N/A   Clear
9:55 AM 62.6 °F 53.6 °F 72% 29.80 in 10.0 mi North - - N/A   Clear
10:15 AM 66.2 °F 55.4 °F 68% 29.79 in 10.0 mi North - - N/A   Clear
10:35 AM 68.0 °F 55.4 °F 64% 29.79 in 9.0 mi North - - N/A   Clear
10:55 AM 68.0 °F 55.4 °F 64% 29.78 in 10.0 mi North - - N/A   Clear
11:15 AM 69.8 °F 55.4 °F 60% 29.76 in 9.0 mi North - - N/A   Clear
11:35 AM 71.6 °F 55.4 °F 57% 29.77 in 9.0 mi North - - N/A   Partly Cloudy
11:55 AM 73.4 °F 53.6 °F 50% 29.74 in 10.0 mi North - - N/A   Scattered Clouds
12:15 PM 73.4 °F 53.6 °F 50% 29.72 in 10.0 mi North - - N/A   Scattered Clouds
12:35 PM 75.2 °F 53.6 °F 47% 29.71 in 10.0 mi North - - N/A   Scattered Clouds
12:55 PM 73.4 °F 53.6 °F 50% 29.70 in 10.0 mi North - - N/A   Scattered Clouds
1:15 PM 75.2 °F 53.6 °F 47% 29.70 in 10.0 mi North - - N/A   Mostly Cloudy
1:35 PM 73.4 °F 53.6 °F 50% 29.70 in 10.0 mi North - - N/A   Mostly Cloudy
1:55 PM 73.4 °F 55.4 °F 53% 29.69 in 10.0 mi North - - N/A   Overcast
2:15 PM 77.0 °F 53.6 °F 44% 29.66 in 10.0 mi North - - N/A   Mostly Cloudy
2:35 PM 75.2 °F 53.6 °F 47% 29.65 in 10.0 mi North - - N/A   Mostly Cloudy
2:55 PM 77.0 °F 53.6 °F 44% 29.63 in 10.0 mi North - - N/A   Mostly Cloudy
3:15 PM 75.2 °F 53.6 °F 47% 29.62 in 10.0 mi North - - N/A   Mostly Cloudy
3:35 PM 75.2 °F 53.6 °F 47% 29.62 in 10.0 mi North - - N/A   Overcast
3:55 PM 77.0 °F 53.6 °F 44% 29.61 in 10.0 mi North - - N/A   Mostly Cloudy
4:15 PM 75.2 °F 53.6 °F 47% 29.61 in 10.0 mi North - - N/A   Mostly Cloudy
4:35 PM 77.0 °F 53.6 °F 44% 29.60 in 10.0 mi North - - N/A   Scattered Clouds
4:55 PM 77.0 °F 53.6 °F 44% 29.59 in 10.0 mi North - - N/A   Partly Cloudy
5:15 PM 77.0 °F 53.6 °F 44% 29.58 in 10.0 mi North - - N/A   Clear
5:35 PM 77.0 °F 53.6 °F 44% 29.59 in 10.0 mi North - - N/A   Partly Cloudy
5:55 PM 75.2 °F 53.6 °F 47% 29.58 in 10.0 mi North - - N/A   Partly Cloudy
6:15 PM 75.2 °F 53.6 °F 47% 29.58 in 10.0 mi North - - N/A   Clear
6:35 PM 73.4 °F 53.6 °F 50% 29.57 in 10.0 mi North - - N/A   Clear
6:55 PM 71.6 °F 53.6 °F 53% 29.57 in 10.0 mi North - - N/A   Clear
7:15 PM 69.8 °F 53.6 °F 56% 29.59 in 10.0 mi North - - N/A   Clear
7:35 PM 68.0 °F 53.6 °F 60% 29.60 in 10.0 mi North - - N/A   Clear
7:55 PM 68.0 °F 53.6 °F 60% 29.60 in 10.0 mi North - - N/A   Clear
8:15 PM 66.2 °F 53.6 °F 64% 29.61 in 10.0 mi North - - N/A   Clear
8:35 PM 64.4 °F 53.6 °F 68% 29.62 in 10.0 mi North - - N/A   Clear
8:55 PM 64.4 °F 53.6 °F 68% 29.62 in 10.0 mi North - - N/A   Clear
9:15 PM 62.6 °F 53.6 °F 72% 29.63 in 10.0 mi North - - N/A   Clear
9:35 PM 62.6 °F 53.6 °F 72% 29.64 in 10.0 mi North - - N/A   Clear
9:55 PM 62.6 °F 53.6 °F 72% 29.64 in 10.0 mi North - - N/A   Clear
10:15 PM 60.8 °F 53.6 °F 77% 29.65 in 10.0 mi North - - N/A   Clear
10:35 PM 59.0 °F 53.6 °F 82% 29.64 in 10.0 mi North - - N/A   Clear
10:55 PM 59.0 °F 53.6 °F 82% 29.64 in 10.0 mi North - - N/A   Clear
11:15 PM 59.0 °F 55.4 °F 88% 29.64 in 10.0 mi North - - N/A   Clear
11:35 PM 59.0 °F 55.4 °F 88% 29.64 in 10.0 mi North - - N/A   Clear
11:55 PM 59.0 °F 55.4 °F 88% 29.64 in 10.0 mi North - - N/A   Clear